Location: Cahoon Acres
(40.8736°N, 111.8994°W)
Time: 11:47:51
(UTC+00:00)

SR - Pass Details

Date: 13 June 2020
Orbit: 583 x 872 km, 66.7° (Epoch: 14 July)

Event Time Altitude Azimuth Distance (km) Brightness Sun altitude
Rises 03:17:12 0° 340° (NNW) 2,861 ? -3.5°
Reaches altitude 10° 03:19:51 10° 355° (N) 1,930 ? -3.9°
Maximum altitude 03:23:21 24° 50° (NE) 1,243 ? -4.5°
Drops below altitude 10° 03:26:47 10° 104° (ESE) 1,902 ? -5.0°
Enters shadow 03:27:55 - 112° (ESE) 2,280 ? -5.2°
Sets 03:29:22 0° 119° (ESE) 2,809 - -5.4°
